DW0302 Weather Reports


time (UTC)temp
F
wind
direction
speed
knots
gust
knots
rain 1hr
in
rain 24hr
in
rain mn
in
humidity
%
barometer
mb
20190422083149 64 158 6.1 9.6 0.00 0.00 0.00 71 1010.8
20190422082148 65 180 8.7 11.3 0.00 0.00 0.00 71 1010.5
20190422081043 65 180 6.1 10.4 0.00 0.00 0.00 71 1010.5
20190422080042 65 189 7.8 11.3 0.00 0.00 0.00 70 1010.5
20190422075041 65 176 7.8 11.3 0.00 0.00 0.00 70 1010.2
20190422074008 65 171 6.1 10.4 0.00 0.00 0.00 70 1010.5
20190422073008 65 165 6.1 9.6 0.00 0.00 0.00 69 1010.5
20190422072006 66 158 7.8 11.3 0.00 0.00 0.00 69 1010.5
20190422071005 66 193 7.0 8.7 0.00 0.00 0.00 69 1010.5
20190422070004 66 186 7.0 10.4 0.00 0.00 0.00 68 1010.5
20190422065003 66 187 7.0 9.6 0.00 0.00 0.00 68 1010.5
20190422063930 66 187 7.0 11.3 0.00 0.00 0.00 68 1010.8
20190422062825 67 203 9.6 10.4 0.00 0.00 0.00 67 1010.8
20190422061752 67 165 7.8 11.3 0.00 0.00 0.00 67 1010.8
20190422060750 67 179 7.8 12.2 0.00 0.00 0.00 66 1010.8
20190422055750 67 164 8.7 12.2 0.00 0.00 0.00 66 1010.8
20190422054716 67 194 8.7 11.3 0.00 0.00 0.00 66 1010.8
20190422053715 67 169 8.7 13.0 0.00 0.00 0.00 66 1010.8
20190422052435 67 187 7.8 12.2 0.00 0.00 0.00 65 1010.8
20190422051434 67 174 7.8 13.0 0.00 0.00 0.00 65 1010.8
20190422050433 68 169 7.0 11.3 0.00 0.00 0.00 65 1010.8
20190422045432 68 193 7.8 11.3 0.00 0.00 0.00 65 1010.8
20190422044328 68 201 5.2 10.4 0.00 0.00 0.00 64 1010.5
20190422043255 68 165 5.2 9.6 0.00 0.00 0.00 64 1010.8
20190422042222 68 158 7.8 10.4 0.00 0.00 0.00 63 1010.5
20190422041221 68 204 7.0 7.8 0.00 0.00 0.00 63 1010.5
20190422040220 68 166 7.8 8.7 0.00 0.00 0.00 62 1010.5
20190422035147 68 172 6.1 8.7 0.00 0.00 0.00 62 1010.5
20190422034146 69 190 7.8 11.3 0.00 0.00 0.00 61 1010.5
20190422033145 69 195 6.1 9.6 0.00 0.00 0.00 61 1010.5
20190422032040 69 135 5.2 8.7 0.00 0.00 0.00 60 1010.2
20190422031039 70 174 7.0 8.7 0.00 0.00 0.00 61 1010.2
20190422024409 71 203 7.0 9.6 0.00 0.00 0.00 61 1009.8
20190422023408 71 171 6.1 9.6 0.00 0.00 0.00 61 1009.8
20190422022335 71 176 5.2 6.1 0.00 0.00 0.00 60 1009.8
20190422021333 72 192 7.0 9.6 0.00 0.00 0.00 60 1009.8
20190422020301 72 189 5.2 9.6 0.00 0.00 0.00 59 1009.5
20190422015124 73 189 6.1 10.4 0.00 0.00 0.00 59 1009.1
20190422014123 73 195 8.7 11.3 0.00 0.00 0.00 59 1009.1
20190422013122 73 171 7.0 9.6 0.00 0.00 0.00 58 1009.1
20190422012121 73 203 6.1 8.7 0.00 0.00 0.00 57 1009.1
20190422011017 74 189 7.8 9.6 0.00 0.00 0.00 57 1008.8
20190422010016 74 174 7.8 11.3 0.00 0.00 0.00 56 1008.8
20190422005015 75 203 7.8 10.4 0.00 0.00 0.00 55 1008.8
20190422004014 75 170 7.8 14.8 0.00 0.00 0.00 54 1008.8
20190422003013 76 180 9.6 9.6 0.00 0.00 0.00 54 1008.8
20190422002012 76 158 7.0 10.4 0.00 0.00 0.00 53 1008.8
20190422000836 76 146 10.4 16.5 0.00 0.00 0.00 52 1008.8
20190421235731 77 180 8.7 13.0 0.00 0.00 0.00 51 1008.8
20190421234730 77 180 9.6 16.5 0.00 0.00 0.00 50 1008.8
20190421233729 78 147 4.3 15.6 0.00 0.00 0.00 49 1008.8
20190421232728 78 183 7.0 17.4 0.00 0.00 0.00 48 1008.8
20190421231727 79 180 7.0 11.3 0.00 0.00 0.00 47 1008.8
20190421230654 79 180 8.7 13.0 0.00 0.00 0.00 46 1008.5
20190421223128 81 188 10.4 17.4 0.00 0.00 0.00 43 1008.1
20190421222023 81 165 7.8 14.8 0.00 0.00 0.00 43 1008.1
20190421221022 82 184 11.3 15.6 0.00 0.00 0.00 42 1008.1
20190421220021 82 199 7.8 13.0 0.00 0.00 0.00 42 1007.8
20190421215020 82 194 8.7 13.0 0.00 0.00 0.00 42 1007.8
20190421213738 82 215 7.0 20.0 0.00 0.00 0.00 41 1007.5
20190421212738 82 191 11.3 14.8 0.00 0.00 0.00 41 1007.5
20190421211736 83 193 9.6 12.2 0.00 0.00 0.00 40 1007.8
20190421210631 83 180 9.6 12.2 0.00 0.00 0.00 40 1008.1
20190421205526 83 203 14.8 15.6 0.00 0.00 0.00 39 1008.1
20190421204526 83 199 7.8 19.1 0.00 0.00 0.00 39 1008.5
20190421203453 83 243 9.6 18.2 0.00 0.00 0.00 38 1008.5
20190421202420 83 203 12.2 22.6 0.00 0.00 0.00 39 1008.5
20190421201347 83 196 13.0 14.8 0.00 0.00 0.00 38 1008.5
20190421200314 83 176 9.6 12.2 0.00 0.00 0.00 39 1008.8
20190421195241 82 172 7.8 13.0 0.00 0.00 0.00 40 1009.1
20190421194240 81 173 8.7 12.2 0.00 0.00 0.00 40 1009.1
20190421193136 82 173 8.7 9.6 0.00 0.00 0.00 41 1009.1
20190421192031 82 182 7.0 11.3 0.00 0.00 0.00 40 1009.1
20190421191030 81 162 9.6 16.5 0.00 0.00 0.00 40 1009.1
20190421185956 80 203 12.2 16.5 0.00 0.00 0.00 41 1009.1
20190421184955 81 185 10.4 13.0 0.00 0.00 0.00 41 1009.5
20190421183747 81 201 9.6 17.4 0.00 0.00 0.00 41 1009.5
20190421182746 81 188 13.0 16.5 0.00 0.00 0.00 41 1009.5
20190421181745 80 173 8.7 11.3 0.00 0.00 0.00 44 1009.5
20190421180744 78 187 9.6 14.8 0.00 0.00 0.00 45 1009.5
20190421175743 79 193 15.6 20.9 0.00 0.00 0.00 44 1009.5
20190421174742 78 203 10.4 15.6 0.00 0.00 0.00 45 1009.5
20190421173709 78 191 10.4 16.5 0.00 0.00 0.00 45 1009.8
20190421172708 78 196 10.4 14.8 0.00 0.00 0.00 47 1009.8
20190421171707 77 205 12.2 21.7 0.00 0.00 0.00 47 1009.8
20190421170706 78 175 13.0 19.1 0.00 0.00 0.00 47 1010.2
20190421165705 77 186 9.6 13.0 0.00 0.00 0.00 49 1010.2
20190421164704 77 201 10.4 16.5 0.00 0.00 0.00 48 1010.2
20190421163703 77 171 6.1 14.8 0.00 0.00 0.00 51 1010.2
20190421162702 76 191 8.7 13.9 0.00 0.00 0.00 53 1010.2
20190421161629 75 202 8.7 13.9 0.00 0.00 0.00 54 1009.8
20190421160628 75 193 12.2 13.9 0.00 0.00 0.00 55 1009.8
20190421155627 74 159 11.3 15.6 0.00 0.00 0.00 57 1010.2
20190421154626 73 180 9.6 9.6 0.00 0.00 0.00 59 1010.2
20190421153625 72 205 9.6 14.8 0.00 0.00 0.00 59 1010.2
20190421152624 72 168 11.3 13.9 0.00 0.00 0.00 61 1009.8
20190421151447 71 187 9.6 11.3 0.00 0.00 0.00 61 1009.8
20190421150414 70 191 11.3 17.4 0.00 0.00 0.00 63 1010.2
20190421145310 69 193 12.2 14.8 0.00 0.00 0.00 62 1010.2
20190421144309 69 183 8.7 14.8 0.00 0.00 0.00 63 1010.5
20190421143204 68 188 12.2 14.8 0.00 0.00 0.00 64 1010.5
20190421142203 67 191 8.7 14.8 0.00 0.00 0.00 65 1010.5
20190421141202 66 186 12.2 14.8 0.00 0.00 0.00 67 1010.5
20190421140130 64 185 7.0 9.6 0.00 0.00 0.00 68 1010.5
20190421135128 63 167 9.6 10.4 0.00 0.00 0.00 69 1010.5
20190421134127 62 144 7.0 12.2 0.00 0.00 0.00 70 1010.8
20190421133054 61 194 6.1 9.6 0.00 0.00 0.00 71 1010.8
20190421132022 60 158 7.0 9.6 0.00 0.00 0.00 70 1010.5
20190421131020 60 165 7.8 9.6 0.00 0.00 0.00 70 1010.5
20190421125947 60 180 7.8 10.4 0.00 0.00 0.00 71 1010.5
20190421124946 59 180 7.0 10.4 0.00 0.00 0.00 71 1010.5
20190421123842 59 195 5.2 8.7 0.00 0.00 0.00 72 1010.5
20190421122841 58 180 7.0 8.7 0.00 0.00 0.00 71 1010.5
20190421121808 58 203 7.0 7.8 0.00 0.00 0.00 71 1010.2
20190421120632 58 177 3.5 9.6 0.00 0.00 0.00 71 1010.2
20190421115559 58 187 4.3 7.8 0.00 0.00 0.00 70 1010.2
20190421114558 58 192 5.2 9.6 0.00 0.00 0.00 70 1010.2
20190421113524 59 183 6.1 8.7 0.00 0.00 0.00 70 1009.8
20190421112451 59 203 7.0 8.7 0.00 0.00 0.00 70 1009.8
20190421111450 59 214 8.7 8.7 0.00 0.00 0.00 70 1009.8
20190421110448 59 192 5.2 6.1 0.00 0.00 0.00 69 1009.8
20190421105448 59 171 5.2 9.6 0.00 0.00 0.00 69 1009.8
20190421104447 59 135 5.2 9.6 0.00 0.00 0.00 69 1009.5
20190421103446 59 180 7.0 7.8 0.00 0.00 0.00 69 1009.5
20190421102341 59 154 5.2 7.8 0.00 0.00 0.00 68 1009.5
20190421101340 59 180 6.1 7.8 0.00 0.00 0.00 68 1009.5
20190421100339 59 180 6.1 7.8 0.00 0.00 0.00 68 1009.5
20190421095306 60 192 6.1 7.0 0.00 0.00 0.00 67 1009.5
20190421094306 60 170 3.5 7.8 0.00 0.00 0.00 67 1009.5
20190421090525 61 187 5.2 10.4 0.00 0.00 0.00 66 1009.1
20190421085452 61 168 7.8 9.6 0.00 0.00 0.00 66 1009.5
20190421084450 61 187 7.8 8.7 0.00 0.00 0.00 65 1009.5